Weather History for Quakertown, PA

Change the Weather History Date:

Monday, May 5, 2014

  Actual Average (KABE) Record (KABE)
Temperature  
Mean Temperature 55 °F 56 °F  
Max Temperature 66 °F 68 °F 92 °F (1949)
Min Temperature 44 °F 45 °F 31 °F (1976)
Degree Days  
Heating Degree Days 10 9  
Month to date heating degree days 48  
Since 1 July heating degree days 5618  
Cooling Degree Days 0 0  
Month to date cooling degree days 0  
Year to date cooling degree days 5  
Growing Degree Days 5 (Base 50)    
Moisture  
Dew Point 31 °F    
Average Humidity 44    
Maximum Humidity 66    
Minimum Humidity 21    
Precipitation  
Precipitation 0.00 in 0.13 in 1.98 in (1922)
Month to date precipitation 0.60  
Year to date precipitation 13.28  
Snow  
Snow 0.00 in 0.00 in 0.00 in ()
Month to date snowfall 0.0  
Since 1 July snowfall 32.9  
Snow Depth -    
Sea Level Pressure  
Sea Level Pressure 29.92 in    
Wind  
Wind Speed 7 mph (WNW)    
Max Wind Speed 15 mph    
Max Gust Speed 23 mph    
Visibility 10 miles    
Events      
T = Trace of Precipitation, MM = Missing Value Source: NWS Daily Summary

Daily Weather History Graph

Daily Weather History Graph

Search for Another Location

Airport:

Trip Planner

Search our weather history database for the weather conditions in past years. The results will help you decide how hot, cold, wet, or windy it might be!

Date:

Astronomy

May. 05, 2014 Rise Set
Actual Time 5:55 AM EDT 8:01 PM EDT
Civil Twilight 5:25 AM EDT 8:31 PM EDT
Nautical Twilight 4:49 AM EDT 9:08 PM EDT
Astronomical Twilight 4:09 AM EDT 9:48 PM EDT
Moon 11:13 AM EDT (5/5) 12:43 AM EDT (5/5)
Length of Visible Light 15h 05m
Length of Day
14h 05m
Waxing Crescent, 36% of the Moon is Illuminated
May 5
Waxing Crescent
May 6
First Quarter
May 14
Full
May 21
Last Quarter
May 28
New

Hourly Weather History & Observations

Time (EDT) Temp. Windchill Dew Point Humidity Pressure Visibility Wind Dir Wind Speed Gust Speed Precip Events Conditions
12:15 AM 50.0 °F - 32.0 °F 50% 29.88 in 10.0 mi West 5.8 mph - N/A   Clear
12:35 AM 50.0 °F - 32.0 °F 50% 29.88 in 10.0 mi West 5.8 mph - N/A   Clear
12:55 AM 50.0 °F - 32.0 °F 50% 29.89 in 10.0 mi West 11.5 mph 17.3 mph N/A   Clear
1:15 AM 48.2 °F - 32.0 °F 54% 29.88 in 10.0 mi West 9.2 mph - N/A   Clear
1:35 AM 48.2 °F - 32.0 °F 54% 29.89 in 10.0 mi West 8.1 mph - N/A   Clear
1:55 AM 48.2 °F - 32.0 °F 54% 29.89 in 10.0 mi West 4.6 mph - N/A   Clear
2:15 AM 48.2 °F - 32.0 °F 54% 29.89 in 10.0 mi West 6.9 mph - N/A   Clear
2:35 AM 48.2 °F - 32.0 °F 54% 29.89 in 10.0 mi West 8.1 mph - N/A   Clear
2:55 AM 48.2 °F - 32.0 °F 54% 29.89 in 10.0 mi West 9.2 mph - N/A   Clear
3:15 AM 48.2 °F - 32.0 °F 54% 29.89 in 10.0 mi West 8.1 mph - N/A   Clear
3:35 AM 46.4 °F 42.9 °F 32.0 °F 57% 29.89 in 10.0 mi West 6.9 mph - N/A   Clear
3:55 AM 46.4 °F 42.4 °F 32.0 °F 57% 29.90 in 10.0 mi WNW 8.1 mph 16.1 mph N/A   Clear
4:15 AM 46.4 °F 41.9 °F 33.8 °F 62% 29.90 in 10.0 mi WNW 9.2 mph 17.3 mph N/A   Clear
4:35 AM 48.2 °F - 33.8 °F 58% 29.90 in 10.0 mi West 8.1 mph - N/A   Clear
4:55 AM 46.4 °F 44.3 °F 33.8 °F 62% 29.91 in 10.0 mi West 4.6 mph - N/A   Clear
5:15 AM 46.4 °F 44.3 °F 33.8 °F 62% 29.92 in 10.0 mi SSW 4.6 mph - N/A   Scattered Clouds
5:35 AM 44.6 °F 43.1 °F 33.8 °F 66% 29.92 in 10.0 mi SW 3.5 mph - N/A   Mostly Cloudy
5:55 AM 44.6 °F 42.2 °F 33.8 °F 66% 29.93 in 10.0 mi WSW 4.6 mph - N/A   Mostly Cloudy
6:15 AM 44.6 °F 42.2 °F 33.8 °F 66% 29.94 in 10.0 mi WSW 4.6 mph - N/A   Clear
6:35 AM 44.6 °F 43.1 °F 33.8 °F 66% 29.95 in 10.0 mi West 3.5 mph - N/A   Clear
6:55 AM 46.4 °F 45.2 °F 33.8 °F 62% 29.96 in 10.0 mi West 3.5 mph - N/A   Clear
7:15 AM 48.2 °F - 35.6 °F 62% 29.96 in 10.0 mi West 6.9 mph - N/A   Clear
7:35 AM 48.2 °F - 35.6 °F 62% 29.96 in 10.0 mi West 5.8 mph - N/A   Clear
7:55 AM 48.2 °F - 35.6 °F 62% 29.96 in 10.0 mi WNW 8.1 mph - N/A   Clear
8:15 AM 50.0 °F - 35.6 °F 58% 29.96 in 10.0 mi West 9.2 mph 18.4 mph N/A   Clear
8:35 AM 50.0 °F - 35.6 °F 58% 29.97 in 10.0 mi WNW 12.7 mph 18.4 mph N/A   Clear
8:55 AM 50.0 °F - 35.6 °F 58% 29.96 in 10.0 mi WNW 10.4 mph 23.0 mph N/A   Clear
9:15 AM 51.8 °F - 35.6 °F 54% 29.97 in 10.0 mi NW 15.0 mph 20.7 mph N/A   Clear
9:35 AM 53.6 °F - 33.8 °F 47% 29.96 in 10.0 mi NNW 10.4 mph 20.7 mph N/A   Clear
9:55 AM 53.6 °F - 32.0 °F 44% 29.96 in 10.0 mi NNW 13.8 mph 21.9 mph N/A   Clear
10:15 AM 55.4 °F - 32.0 °F 41% 29.96 in 10.0 mi NW 11.5 mph 18.4 mph N/A   Clear
10:35 AM 55.4 °F - 32.0 °F 41% 29.97 in 10.0 mi WNW 12.7 mph 20.7 mph N/A   Clear
10:55 AM 57.2 °F - 32.0 °F 38% 29.97 in 10.0 mi West 10.4 mph 16.1 mph N/A   Clear
11:15 AM 57.2 °F - 32.0 °F 38% 29.98 in 10.0 mi West 9.2 mph 17.3 mph N/A   Clear
11:35 AM 57.2 °F - 32.0 °F 38% 29.97 in 10.0 mi West 9.2 mph 17.3 mph N/A   Clear
11:55 AM 59.0 °F - 32.0 °F 36% 29.97 in 10.0 mi WNW 10.4 mph 20.7 mph N/A   Clear
12:15 PM 59.0 °F - 32.0 °F 36% 29.96 in 10.0 mi NW 11.5 mph 16.1 mph N/A   Clear
12:35 PM 59.0 °F - 32.0 °F 36% 29.95 in 10.0 mi NW 6.9 mph - N/A   Clear
12:55 PM 59.0 °F - 32.0 °F 36% 29.94 in 10.0 mi West 12.7 mph 18.4 mph N/A   Clear
1:15 PM 60.8 °F - 30.2 °F 31% 29.93 in 10.0 mi NNW 10.4 mph - N/A   Clear
1:35 PM 62.6 °F - 30.2 °F 30% 29.93 in 10.0 mi NW 8.1 mph 16.1 mph N/A   Clear
2:15 PM 62.6 °F - 26.6 °F 26% 29.91 in 10.0 mi NW 6.9 mph 18.4 mph N/A   Clear
2:35 PM 64.4 °F - 28.4 °F 26% 29.91 in 10.0 mi WNW 11.5 mph 19.6 mph N/A   Clear
2:55 PM 64.4 °F - 28.4 °F 26% 29.90 in 10.0 mi West 12.7 mph 16.1 mph N/A   Clear
3:15 PM 66.2 °F - 28.4 °F 24% 29.89 in 10.0 mi WNW 9.2 mph 20.7 mph N/A   Clear
3:35 PM 64.4 °F - 26.6 °F 24% 29.89 in 10.0 mi WNW 8.1 mph 19.6 mph N/A   Clear
3:55 PM 64.4 °F - 26.6 °F 24% 29.88 in 10.0 mi NW 8.1 mph - N/A   Clear
4:15 PM 64.4 °F - 26.6 °F 24% 29.88 in 10.0 mi NW 12.7 mph 16.1 mph N/A   Clear
4:35 PM 64.4 °F - 26.6 °F 24% 29.88 in 10.0 mi West 10.4 mph 17.3 mph N/A   Clear
4:55 PM 64.4 °F - 23.0 °F 21% 29.88 in 10.0 mi West 8.1 mph 18.4 mph N/A   Clear
5:15 PM 62.6 °F - 24.8 °F 24% 29.88 in 10.0 mi West 4.6 mph - N/A   Clear
5:35 PM 62.6 °F - 26.6 °F 26% 29.88 in 10.0 mi WNW 4.6 mph - N/A   Clear
5:55 PM 62.6 °F - 26.6 °F 26% 29.88 in 10.0 mi West 5.8 mph - N/A   Clear
6:15 PM 62.6 °F - 26.6 °F 26% 29.88 in 10.0 mi West 5.8 mph - N/A   Clear
6:35 PM 62.6 °F - 26.6 °F 26% 29.88 in 10.0 mi West 6.9 mph - N/A   Clear
6:55 PM 62.6 °F - 24.8 °F 24% 29.88 in 10.0 mi WNW 8.1 mph - N/A   Clear
7:15 PM 62.6 °F - 24.8 °F 24% 29.89 in 10.0 mi West 6.9 mph - N/A   Clear
7:35 PM 60.8 °F - 24.8 °F 25% 29.89 in 10.0 mi NW 3.5 mph - N/A   Clear
7:55 PM 60.8 °F - 24.8 °F 25% 29.89 in 10.0 mi NW 3.5 mph - N/A   Partly Cloudy
8:15 PM 59.0 °F - 24.8 °F 27% 29.89 in 10.0 mi Calm Calm - N/A   Clear
8:35 PM 57.2 °F - 28.4 °F 33% 29.89 in 10.0 mi Calm Calm - N/A   Clear
8:55 PM 53.6 °F - 26.6 °F 35% 29.90 in 10.0 mi Calm Calm - N/A   Scattered Clouds
9:15 PM 51.8 °F - 30.2 °F 44% 29.91 in 10.0 mi Calm Calm - N/A   Partly Cloudy
9:35 PM 50.0 °F - 28.4 °F 43% 29.92 in 10.0 mi Calm Calm - N/A   Clear
9:55 PM 46.4 °F - 33.8 °F 62% 29.92 in 10.0 mi Calm Calm - N/A   Clear
10:15 PM 46.4 °F - 32.0 °F 57% 29.92 in 10.0 mi Calm Calm - N/A   Clear
10:35 PM 46.4 °F - 32.0 °F 57% 29.91 in 10.0 mi Calm Calm - N/A   Clear
10:55 PM 46.4 °F 44.3 °F 33.8 °F 62% 29.91 in 10.0 mi NNE 4.6 mph - N/A   Clear
11:15 PM 48.2 °F - 28.4 °F 46% 29.91 in 10.0 mi NW 4.6 mph - N/A   Clear
11:35 PM 51.8 °F - 26.6 °F 38% 29.92 in 10.0 mi NW 3.5 mph - N/A   Clear
11:55 PM 46.4 °F - 33.8 °F 62% 29.92 in 10.0 mi Calm Calm - N/A   Clear